Location: Pabrico
(37.5827°N, 122.0063°W)
Time: 11:28:45
(UTC+00:00)

Cosmos 1461 - Pass Details

Date: 13 April 2024
Orbit: 499 x 585 km, 65.0° (Epoch: 23 May)

Event Time Altitude Azimuth Distance (km) Brightness Sun altitude
Rises 12:15:12 0° 324° (NW) 2,605 6.2 -15.8°
Reaches altitude 10° 12:17:24 10° 320° (NW) 1,711 5.2 -15.4°
Maximum altitude 12:21:06 51° 244° (WSW) 630 2.7 -14.7°
Drops below altitude 10° 12:24:46 10° 167° (SSE) 1,695 5.2 -14.1°
Sets 12:26:57 0° 162° (SSE) 2,579 6.2 -13.7°
